Estherville, IA

4:35 PM CST on November 19, 2017 (GMT -0600)
Estherville Municipal

Weather History for KEST - March, 2014

Change the Weather History Date:

Thursday, March 27, 2014

  Actual Average Record
Temperature  
Mean Temperature 37 °F 38 °F  
Max Temperature 43 °F 48 °F 78 °F (1991)
Min Temperature 31 °F 28 °F 6 °F (1955)
Degree Days  
Heating Degree Days 28 27  
Month to date heating degree days 1066 895  
Since 1 July heating degree days 7557 6810  
Cooling Degree Days 0 0  
Month to date cooling degree days 0 0  
Year to date cooling degree days 0 0  
Moisture  
Dew Point 37 °F    
Average Humidity 95    
Maximum Humidity 100    
Minimum Humidity 89    
Precipitation  
Precipitation 0.17 in 0.07 in 1.82 in (2004)
Month to date precipitation 0.27 1.26  
Sea Level Pressure  
Sea Level Pressure 29.47 in    
Wind  
Wind Speed 17 mph (South)    
Max Wind Speed 32 mph    
Max Gust Speed 43 mph    
Visibility 5 miles    
Events Rain , Snow    
T = Trace of Precipitation, MM = Missing Value Source: NWS Daily Summary

Daily Weather History Graph

Daily Weather History Graph

Search for Another Location

Airport or City:

Trip Planner

Search our weather history database for the weather conditions in past years. The results will help you decide how hot, cold, wet, or windy it might be!

Date:

Astronomy

Mar. 27, 2014 Rise Set
Actual Time 7:09 AM CDT 7:39 PM CDT
Civil Twilight 6:40 AM CDT 8:08 PM CDT
Nautical Twilight 6:07 AM CDT 8:42 PM CDT
Astronomical Twilight 5:32 AM CDT 9:17 PM CDT
Moon 5:07 AM CDT (3/27) 4:23 PM CDT (3/27)
Length of Visible Light 13h 27m
Length of Day
12h 30m
Waning Crescent, 13% of the Moon is Illuminated
Mar 27
Waning Crescent
Mar 30
New
Apr 7
First Quarter
Apr 15
Full
Apr 22
Last Quarter

Hourly Weather History & Observations

Time (CDT) Temp. Windchill Dew Point Humidity Pressure Visibility Wind Dir Wind Speed Gust Speed Precip Events Conditions
12:52 AM 43.0 °F 33.1 °F 39.0 °F 86% 29.52 in 10.0 mi South 26.5 mph 38.0 mph N/A   Overcast
1:10 AM 42.1 °F 31.7 °F 39.0 °F 89% 29.51 in 9.0 mi South 27.6 mph 39.1 mph N/A   Overcast
1:52 AM 41.0 °F 30.5 °F 39.0 °F 93% 29.52 in 8.0 mi South 26.5 mph 36.8 mph N/A   Overcast
2:31 AM 39.9 °F 30.2 °F 39.9 °F 100% 29.51 in 6.0 mi South 20.7 mph 32.2 mph N/A   Overcast
2:52 AM 39.9 °F 30.2 °F 39.9 °F 100% 29.52 in 4.0 mi South 20.7 mph 31.1 mph N/A   Overcast
3:52 AM 39.0 °F 29.6 °F 39.0 °F 100% 29.50 in 3.0 mi South 18.4 mph 26.5 mph N/A   Overcast
4:09 AM 39.0 °F 29.6 °F 39.0 °F 100% 29.48 in 3.0 mi South 18.4 mph - N/A   Overcast
4:33 AM 39.0 °F 30.3 °F 39.0 °F 100% 29.46 in 3.0 mi South 16.1 mph - N/A   Overcast
4:52 AM 39.0 °F 29.0 °F 39.0 °F 100% 29.47 in 3.0 mi South 20.7 mph - N/A   Overcast
5:52 AM 39.0 °F 28.8 °F 39.0 °F 100% 29.45 in 3.0 mi South 21.9 mph - N/A   Overcast
6:52 AM 39.0 °F 30.3 °F 39.0 °F 100% 29.46 in 3.0 mi South 16.1 mph - N/A   Overcast
7:33 AM 39.0 °F 31.8 °F 39.0 °F 100% 29.44 in 2.5 mi SSE 11.5 mph - N/A   Overcast
7:43 AM 39.0 °F 32.3 °F 39.0 °F 100% 29.44 in 1.5 mi SSE 10.4 mph - N/A   Overcast
7:52 AM 39.0 °F 32.3 °F 39.0 °F 100% 29.46 in 1.2 mi SSE 10.4 mph - N/A   Overcast
8:52 AM 39.0 °F 30.6 °F 39.0 °F 100% 29.46 in 1.8 mi South 15.0 mph - 0.00 in Rain Light Rain
9:32 AM 39.0 °F 31.8 °F 39.0 °F 100% 29.43 in 2.5 mi SSE 11.5 mph - 0.01 in Rain Light Rain
9:52 AM 39.0 °F 31.4 °F 39.0 °F 100% 29.43 in 2.5 mi SSE 12.7 mph - 0.02 in Rain Light Rain
10:12 AM 39.0 °F 31.8 °F 39.0 °F 100% 29.41 in 3.0 mi SSE 11.5 mph - 0.02 in Rain Light Rain
10:38 AM 39.0 °F 31.4 °F 39.0 °F 100% 29.41 in 1.8 mi SSE 12.7 mph - 0.02 in   Overcast
10:52 AM 39.0 °F 31.8 °F 39.0 °F 100% 29.43 in 1.2 mi SSE 11.5 mph - 0.02 in   Overcast
11:52 AM 39.0 °F 33.4 °F 39.0 °F 100% 29.42 in 1.5 mi SSE 8.1 mph - 0.00 in Rain Light Rain
12:08 PM 39.0 °F 32.3 °F 39.0 °F 100% 29.39 in 2.5 mi SSE 10.4 mph - 0.01 in Rain Light Rain
12:15 PM 39.0 °F 32.3 °F 39.0 °F 100% 29.39 in 3.0 mi SSE 10.4 mph - 0.01 in   Overcast
12:31 PM 39.0 °F 33.4 °F 39.0 °F 100% 29.39 in 2.5 mi SSE 8.1 mph - 0.02 in Rain Light Rain
12:52 PM 39.0 °F 35.7 °F 39.0 °F 100% 29.41 in 1.5 mi SSE 4.6 mph - 0.02 in   Overcast
1:52 PM 39.9 °F 36.7 °F 39.9 °F 100% 29.39 in 1.5 mi ENE 4.6 mph - 0.01 in   Overcast
2:52 PM 39.9 °F 34.5 °F 39.9 °F 100% 29.41 in 1.5 mi North 8.1 mph - 0.02 in Rain Light Rain
3:11 PM 37.0 °F 27.7 °F 37.0 °F 100% 29.40 in 3.0 mi North 16.1 mph - 0.01 in Rain Light Rain
3:19 PM 36.0 °F 25.3 °F 36.0 °F 100% 29.40 in 2.5 mi NNW 19.6 mph - 0.01 in   Overcast
3:52 PM 36.0 °F 25.6 °F 36.0 °F 100% 29.42 in 3.0 mi North 18.4 mph - 0.01 in Rain Light Rain
4:03 PM 36.0 °F 25.3 °F 36.0 °F 100% 29.39 in 8.0 mi North 19.6 mph - 0.00 in   Overcast
4:10 PM 36.0 °F 26.0 °F 36.0 °F 100% 29.40 in 10.0 mi NNW 17.3 mph - 0.01 in   Overcast
4:19 PM 36.0 °F 26.0 °F 36.0 °F 100% 29.40 in 10.0 mi NNW 17.3 mph - 0.01 in   Overcast
4:34 PM 36.0 °F 26.0 °F 36.0 °F 100% 29.40 in 6.0 mi NNW 17.3 mph - 0.01 in Rain Light Rain
4:52 PM 36.0 °F 26.0 °F 36.0 °F 100% 29.43 in 6.0 mi NNW 17.3 mph - 0.03 in Rain Light Rain
5:52 PM 34.0 °F 21.5 °F 34.0 °F 100% 29.46 in 9.0 mi North 24.2 mph 29.9 mph 0.04 in   Overcast
6:26 PM 34.0 °F 21.0 °F 34.0 °F 100% 29.46 in 10.0 mi North 26.5 mph 34.5 mph 0.00 in   Overcast
6:42 PM 33.1 °F 19.8 °F 33.1 °F 100% 29.47 in 8.0 mi North 26.5 mph 33.4 mph 0.00 in Snow Light Snow
6:52 PM 33.1 °F 20.6 °F 33.1 °F 100% 29.52 in 9.0 mi North 23.0 mph 33.4 mph 0.00 in   Overcast
7:52 PM 32.0 °F 17.9 °F 30.9 °F 96% 29.57 in 8.0 mi NNW 28.8 mph 39.1 mph N/A   Overcast
8:52 PM 30.9 °F 16.7 °F 30.9 °F 100% 29.64 in 7.0 mi North 27.6 mph 39.1 mph N/A   Overcast
9:52 PM 30.9 °F 16.7 °F 30.0 °F 96% 29.70 in 8.0 mi North 27.6 mph 34.5 mph N/A   Overcast
10:12 PM 30.9 °F 17.5 °F 30.0 °F 96% 29.68 in 8.0 mi NNW 24.2 mph 34.5 mph N/A   Overcast
10:52 PM 30.9 °F 18.1 °F 30.0 °F 96% 29.74 in 8.0 mi North 21.9 mph 32.2 mph N/A   Overcast
11:52 PM 30.9 °F 17.8 °F 28.9 °F 92% 29.78 in 9.0 mi NNW 23.0 mph 31.1 mph N/A   Overcast